Regional Weather Roundup
Issued by NWS

Current Version | Previous Version | Text Only | Print | Product List | Glossary On
Versions: 1 2 3 4 5 6 7 8 9 10 11 12 13 14 15 16 17 18 19 20 21 22 23 24 25 26 27 28 29 30 31 32 33 34 35 36 37 38 39 40 41 42 43 44 45 46 47 48 49 50
000
ASUS46 KPQR 271010
RWROR

OREGON REGIONAL WEATHER ROUNDUP
NATIONAL WEATHER SERVICE PORTLAND OR
200 AM PST TUE JAN 27 2015

NOTE: "FAIR" INDICATES FEW OR NO CLOUDS BELOW 12,000 FEET WITH
NO SIGNIFICANT WEATHER AND/OR OBSTRUCTIONS TO VISIBILITY.

ORZ001>013-271100-
NORTHWEST OREGON


CITY           SKY/WX    TMP DP  RH WIND       PRES   REMARKS
ASTORIA        CLOUDY    47  46  97 CALM      30.00S
NEWPORT        MOCLDY    45  45 100 CALM      30.04R
PORTLAND       CLOUDY    43  42  97 E8        30.02F FOG
VANCOUVER WA   CLOUDY    43  41  93 E6        30.02S
SCAPPOOSE      FOG       41  41 100 CALM      30.02R VSB 1/2
HILLSBORO      FOG       41  41 100 W3        30.02S VSB 1/4
AURORA         FOG       44  44 100 S5        30.03F VSB 1/4
MCMINNVILLE    FOG       44  43  96 CALM      30.03S VSB 1/4
SALEM          FOG       43  42  97 S3        30.01F VSB 1/2
CORVALLIS      CLOUDY    45  41  87 SW3       30.03F VSB 1/4
EUGENE         FOG       43  42  97 CALM      30.03F VSB 1/4
$$

ORZ021-028-271100-
SOUTHWEST OREGON


CITY           SKY/WX    TMP DP  RH WIND       PRES   REMARKS
NORTH BEND     CLOUDY    52  52 100 SE5       30.03S
BROOKINGS      CLOUDY    50  50 100 CALM      30.03S
ROSEBURG       FOG       45  45 100 CALM      30.03R VSB 1/4
SEXTON SUMMIT  PTCLDY    49  28  44 S9        30.02S
MEDFORD        FOG       36  35  96 CALM      30.03S VSB 1/4
$$

ORZ014>016-041-271100-
COLUMBIA GORGE


CITY           SKY/WX    TMP DP  RH WIND       PRES   REMARKS
TROUTDALE      MOCLDY    42  39  89 E8        30.01F
THE DALLES     CLOUDY    40  38  93 NE5       30.05S
$$

ORZ029>031-041-044-049-050-061>064-502-503-505>511-271100-
EASTERN OREGON


CITY           SKY/WX    TMP DP  RH WIND       PRES   REMARKS
REDMOND        MOCLDY    33  30  88 SE3       30.00F
BEND           MOCLDY    39  32  75 SE6       30.02S WCI  35
PRINEVILLE     MOCLDY    37  34  87 E6        30.02S WCI  33
KLAMATH FALLS  CLOUDY    32  30  92 CALM      30.04S
LAKEVIEW       CLOUDY    30  27  86 NW6       30.05S WCI  24
HERMISTON      FOG       36  35  96 CALM      30.04S VSB 1/2
PENDLETON      FOG       31  30  96 NW5       30.00R VSB 1/4 WCI  26
JOHN DAY       MOCLDY    40  32  72 E7        30.03S
MEACHAM        PTCLDY    40  32  73 CALM      30.02S
LA GRANDE      PTCLDY    46  30  53 S17G23    30.04S
BAKER CITY     PTCLDY    28  27  96 CALM      30.10S FOG
BURNS          FOG       28  26  92 CALM      30.08S VSB 1/4
ROME             N/A     30  27  88 E3        30.07F
ONTARIO        FOG       28  26  92 CALM      30.16S VSB 1/2
$$


USA.gov is the U.S. government's official web portal to all federal, state and local government web resources and services.